Time[GMT],salinity[psu](1m),sigma_t[kg/m^3](1m),conductivity[msiemens/cm](1m),temperature[C](1m)
2011-10-08 15:00,30.870,22.669,38.850,15.57
2011-10-08 16:00,30.852,22.596,39.069,15.84
2011-10-08 17:00,30.847,22.545,39.249,16.05
2011-10-08 18:00,30.839,22.502,39.391,16.22
2011-10-08 19:00,30.881,22.554,39.359,16.13
2011-10-08 20:00,30.905,22.537,39.529,16.29
2011-10-08 21:00,30.897,22.539,39.484,16.25
2011-10-08 22:00,30.895,22.549,39.437,16.20
2011-10-08 23:00,30.892,22.551,39.416,16.18
2011-10-09 00:00,,,,
2011-10-09 01:00,30.887,22.567,39.330,16.09
2011-10-09 02:00,30.890,22.576,39.307,16.06
2011-10-09 03:00,30.898,22.582,39.316,16.06
2011-10-09 04:00,30.891,22.588,39.264,16.01
2011-10-09 05:00,30.871,22.561,39.285,16.06
2011-10-09 06:00,30.869,22.566,39.256,16.03
2011-10-09 07:00,30.782,22.505,39.140,16.01
2011-10-09 08:00,30.771,22.518,39.039,15.91
2011-10-09 09:00,30.733,22.498,38.960,15.87
2011-10-09 10:00,30.727,22.499,38.926,15.84
2011-10-09 11:00,30.727,22.513,38.873,15.78
2011-10-09 12:00,30.743,22.523,38.901,15.79
2011-10-09 13:00,30.736,22.517,38.892,15.79
2011-10-09 14:00,30.720,22.481,38.971,15.90
2011-10-09 15:00,30.680,22.481,38.802,15.76
2011-10-09 16:00,30.567,22.368,38.779,15.88
2011-10-09 17:00,30.544,22.264,39.096,16.27
2011-10-09 18:00,30.453,22.104,39.344,16.67
2011-10-09 19:00,30.187,21.909,39.000,16.63
2011-10-09 20:00,30.074,21.816,38.895,16.66
2011-10-09 21:00,30.019,21.767,38.857,16.69
2011-10-09 22:00,30.024,21.789,38.793,16.61
2011-10-09 23:00,30.051,21.870,38.590,16.34
2011-10-10 00:00,30.092,21.890,38.680,16.39
2011-10-10 01:00,30.224,22.025,38.702,16.24
2011-10-10 02:00,30.573,22.273,39.183,16.33
2011-10-10 03:00,30.836,22.502,39.379,16.21
2011-10-10 04:00,30.871,22.541,39.365,16.15
2011-10-10 05:00,30.914,22.571,39.433,16.17
2011-10-10 06:00,30.918,22.553,39.517,16.26
2011-10-10 07:00,30.913,22.632,39.183,15.89
2011-10-10 08:00,30.901,22.664,39.000,15.70
2011-10-10 09:00,30.967,22.673,39.244,15.89
2011-10-10 10:00,30.971,22.693,39.177,15.81
2011-10-10 11:00,30.966,22.705,39.109,15.74
2011-10-10 12:00,30.391,22.257,38.483,15.77
2011-10-10 13:00,30.148,22.070,38.206,15.77
2011-10-10 14:00,30.186,22.074,38.354,15.89
2011-10-10 15:00,30.405,22.202,38.761,16.07
2011-10-10 16:00,30.714,22.419,39.194,16.16
2011-10-10 17:00,30.772,22.396,39.527,16.46
2011-10-10 18:00,30.928,22.480,39.850,16.62
2011-10-10 19:00,30.903,22.540,39.509,16.27
2011-10-10 20:00,30.873,22.471,39.652,16.47
2011-10-10 21:00,30.891,22.428,39.896,16.72
2011-10-10 22:00,30.892,22.490,39.656,16.45
2011-10-10 23:00,30.887,22.565,39.339,16.10
2011-10-11 00:00,30.887,22.545,39.419,16.19
2011-10-11 01:00,30.888,22.517,39.536,16.32
2011-10-11 02:00,30.884,22.523,39.496,16.28
2011-10-11 03:00,30.886,22.531,39.471,16.25
2011-10-11 04:00,30.885,22.535,39.453,16.23
2011-10-11 05:00,30.891,22.546,39.433,16.20
2011-10-11 06:00,30.900,22.539,39.496,16.26
2011-10-11 07:00,30.910,22.554,39.481,16.23
2011-10-11 08:00,30.909,22.564,39.436,16.18
2011-10-11 09:00,30.902,22.561,39.419,16.17
2011-10-11 10:00,30.903,22.570,39.384,16.13
2011-10-11 11:00,30.910,22.594,39.321,16.05
2011-10-11 12:00,30.917,22.608,39.294,16.01
2011-10-11 13:00,30.916,22.605,39.301,16.02
2011-10-11 14:00,30.913,22.603,39.298,16.02
2011-10-11 15:00,30.909,22.604,39.276,16.00
2011-10-11 16:00,30.921,22.620,39.263,15.97
2011-10-11 17:00,30.919,22.600,39.331,16.05
2011-10-11 19:00,30.919,22.600,39.331,16.05
2011-10-11 20:00,30.906,22.584,39.343,16.08
2011-10-11 21:00,30.902,22.594,39.285,16.02
2011-10-11 22:00,30.889,22.591,39.244,15.99
2011-10-11 23:00,30.893,22.611,39.177,15.91
2011-10-12 00:00,30.898,22.622,39.156,15.88
2011-10-12 01:00,30.902,22.634,39.126,15.84
2011-10-12 02:00,30.900,22.646,39.070,15.78
2011-10-12 03:00,30.894,22.646,39.046,15.76
2011-10-12 04:00,30.889,22.626,39.102,15.83
2011-10-12 05:00,30.898,22.637,39.094,15.81
2011-10-12 06:00,30.837,22.600,38.990,15.77
2011-10-12 07:00,30.878,22.635,39.018,15.75
2011-10-12 08:00,30.906,22.650,39.077,15.78
2011-10-12 09:00,30.913,22.667,39.041,15.73
2011-10-12 10:00,30.914,22.668,39.042,15.73
2011-10-12 11:00,30.903,22.653,39.056,15.76
2011-10-12 12:00,30.897,22.646,39.058,15.77
2011-10-12 13:00,30.887,22.636,39.055,15.78
2011-10-12 14:00,30.868,22.621,39.034,15.78
2011-10-12 15:00,30.859,22.612,39.032,15.79
2011-10-12 16:00,30.830,22.599,38.964,15.75
2011-10-12 17:00,30.814,22.588,38.937,15.74
2011-10-12 18:00,30.818,22.609,38.871,15.66
2011-10-12 19:00,30.818,22.613,38.853,15.64
2011-10-12 20:00,30.858,22.653,38.863,15.60
2011-10-12 21:00,30.838,22.655,38.770,15.52
2011-10-12 22:00,30.867,22.693,38.741,15.45
2011-10-12 23:00,30.875,22.699,38.750,15.45
2011-10-13 00:00,30.885,22.704,38.770,15.46
2011-10-13 01:00,30.881,22.708,38.739,15.43
2011-10-13 02:00,30.887,22.717,38.728,15.41
2011-10-13 03:00,30.896,22.723,38.738,15.41
2011-10-13 04:00,30.899,22.725,38.741,15.41
2011-10-13 05:00,30.905,22.739,38.713,15.37
2011-10-13 06:00,30.894,22.728,38.709,15.38
2011-10-13 07:00,30.905,22.739,38.713,15.37
2011-10-13 08:00,30.907,22.738,38.724,15.38
2011-10-13 09:00,30.920,22.750,38.729,15.37
2011-10-13 10:00,30.805,22.614,38.794,15.59
2011-10-13 11:00,30.822,22.636,38.778,15.55
2011-10-13 12:00,30.841,22.657,38.773,15.52
2011-10-13 13:00,30.816,22.636,38.754,15.53
2011-10-13 14:00,30.806,22.626,38.751,15.54
2011-10-13 15:00,30.807,22.620,38.779,15.57
2011-10-13 16:00,30.824,22.633,38.798,15.57
2011-10-13 17:00,30.830,22.634,38.823,15.59
2011-10-13 18:00,30.834,22.632,38.845,15.61
2011-10-13 19:00,30.840,22.632,38.869,15.63
2011-10-13 20:00,30.825,22.613,38.888,15.67
2011-10-13 21:00,30.832,22.617,38.895,15.67
2011-10-13 22:00,30.849,22.639,38.879,15.63
2011-10-13 23:00,30.847,22.640,38.868,15.62
2011-10-14 00:00,30.839,22.636,38.850,15.61
2011-10-14 01:00,30.841,22.640,38.844,15.60
2011-10-14 02:00,30.855,22.655,38.842,15.58
2011-10-14 03:00,30.887,22.682,38.869,15.57
2011-10-14 04:00,30.902,22.702,38.851,15.53
2011-10-14 05:00,30.913,22.715,38.846,15.51
2011-10-14 06:00,30.926,22.731,38.834,15.48
2011-10-14 07:00,30.960,22.766,38.837,15.44
2011-10-14 08:00,30.962,22.768,38.839,15.44
2011-10-14 09:00,30.948,22.755,38.832,15.45
2011-10-14 10:00,30.951,22.759,38.826,15.44
2011-10-14 11:00,30.939,22.745,38.830,15.46
2011-10-14 13:00,30.882,22.686,38.828,15.53
2011-10-14 14:00,30.872,22.664,38.879,15.60
2011-10-14 15:00,30.858,22.644,38.898,15.64
2011-10-14 16:00,30.843,22.624,38.917,15.68
2011-10-14 17:00,30.850,22.632,38.916,15.67
2011-10-14 18:00,30.865,22.639,38.951,15.69
2011-10-14 19:00,,,,
2011-10-14 20:00,30.868,22.637,38.972,15.71
2011-10-14 21:00,30.889,22.657,38.978,15.69
2011-10-14 22:00,30.899,22.660,39.007,15.71
2011-10-14 23:00,30.891,22.652,39.007,15.72
2011-10-15 00:00,30.899,22.667,38.980,15.68
2011-10-15 01:00,30.893,22.667,38.956,15.66
2011-10-15 02:00,30.867,22.649,38.917,15.65
2011-10-15 03:00,30.882,22.658,38.943,15.66
2011-10-15 04:00,30.893,22.669,38.947,15.65
2011-10-15 05:00,,,,
2011-10-15 06:00,,,,
2011-10-15 07:00,30.966,22.753,38.914,15.52
2011-10-15 08:00,30.996,22.785,38.913,15.48
2011-10-15 09:00,31.028,22.820,38.904,15.43
2011-10-15 10:00,,,,
2011-10-15 11:00,31.123,22.919,38.904,15.31
2011-10-15 12:00,31.147,22.947,38.896,15.27
2011-10-15 13:00,31.159,22.962,38.882,15.24
2011-10-15 14:00,,,,
2011-10-15 15:00,31.183,22.983,38.901,15.23
2011-10-15 16:00,31.191,22.989,38.909,15.23
2011-10-15 17:00,31.199,22.995,38.918,15.23
2011-10-15 18:00,,,,
2011-10-15 20:00,31.079,22.862,38.953,15.42
2011-10-15 21:00,31.066,22.854,38.929,15.41
2011-10-15 22:00,31.050,22.844,38.902,15.40
2011-10-15 23:00,31.019,22.820,38.868,15.40
2011-10-16 00:00,31.015,22.819,38.854,15.39
2011-10-16 01:00,,,,
2011-10-16 02:00,31.022,22.831,38.835,15.36
2011-10-16 03:00,31.052,22.861,38.843,15.33
2011-10-16 04:00,31.076,22.884,38.852,15.31
2011-10-16 05:00,31.098,22.911,38.832,15.26
2011-10-16 07:00,,,,
2011-10-16 08:00,31.116,22.934,38.817,15.22
2011-10-16 09:00,31.118,22.937,38.810,15.21
2011-10-16 10:00,31.098,22.922,38.788,15.21
2011-10-16 11:00,31.095,22.926,38.758,15.18
2011-10-16 12:00,31.095,22.926,38.758,15.18
2011-10-16 13:00,31.097,22.928,38.760,15.18
2011-10-16 14:00,31.100,22.930,38.763,15.18
2011-10-16 15:00,31.104,22.932,38.767,15.18
2011-10-16 16:00,31.100,22.926,38.781,15.20
2011-10-16 17:00,31.102,22.923,38.801,15.22
2011-10-16 18:00,31.102,22.921,38.810,15.23
2011-10-16 19:00,31.108,22.925,38.817,15.23
2011-10-16 20:00,31.106,22.923,38.814,15.23
2011-10-16 21:00,31.113,22.933,38.804,15.21
2011-10-16 22:00,31.106,22.930,38.788,15.20
2011-10-16 23:00,31.093,22.920,38.773,15.20
2011-10-17 00:00,31.099,22.929,38.762,15.18
2011-10-17 01:00,,,,
2011-10-17 02:00,31.076,22.939,38.621,15.05
2011-10-17 03:00,31.085,22.946,38.631,15.05
2011-10-17 04:00,31.096,22.956,38.634,15.04
2011-10-17 05:00,31.116,22.951,38.746,15.14
2011-10-17 06:00,31.110,22.944,38.748,15.15
2011-10-17 07:00,,,,
2011-10-17 08:00,31.103,22.939,38.740,15.15
2011-10-17 09:00,31.104,22.939,38.741,15.15
2011-10-17 10:00,31.104,22.941,38.732,15.14
2011-10-17 11:00,31.088,22.927,38.723,15.15
2011-10-17 12:00,31.055,22.899,38.695,15.16
2011-10-17 13:00,31.037,22.879,38.701,15.19
2011-10-17 14:00,31.018,22.858,38.707,15.22
2011-10-17 15:00,31.018,22.856,38.716,15.23
2011-10-17 16:00,31.005,22.840,38.728,15.26
2011-10-17 17:00,31.014,22.844,38.746,15.27
2011-10-17 18:00,31.011,22.838,38.761,15.29
2011-10-17 19:00,30.971,22.803,38.734,15.31
2011-10-17 20:00,30.974,22.809,38.719,15.29
2011-10-17 21:00,30.957,22.800,38.682,15.27
2011-10-17 22:00,30.974,22.820,38.675,15.24
2011-10-17 23:00,30.941,22.792,38.647,15.25
2011-10-18 00:00,30.938,22.796,38.617,15.22
2011-10-18 01:00,30.953,22.816,38.598,15.18
2011-10-18 02:00,30.967,22.825,38.623,15.19
2011-10-18 03:00,30.977,22.837,38.616,15.17
2011-10-18 04:00,31.035,22.884,38.672,15.16
2011-10-18 05:00,31.041,22.892,38.661,15.14
2011-10-18 06:00,31.046,22.893,38.685,15.16
2011-10-18 07:00,31.051,22.899,38.682,15.15
2011-10-18 08:00,31.050,22.898,38.681,15.15
2011-10-18 09:00,31.059,22.909,38.673,15.13
2011-10-18 10:00,31.097,22.953,38.653,15.06
2011-10-18 11:00,31.114,22.972,38.645,15.03
2011-10-18 12:00,,,,
2011-10-18 13:00,31.038,22.920,38.534,15.00
2011-10-18 14:00,31.038,22.916,38.552,15.02
2011-10-18 15:00,31.045,22.922,38.560,15.02
2011-10-18 16:00,31.050,22.921,38.583,15.04
2011-10-18 17:00,31.111,22.945,38.749,15.15
2011-10-18 18:00,31.120,22.934,38.830,15.23
2011-10-18 19:00,31.116,22.914,38.896,15.31
2011-10-18 20:00,31.125,22.917,38.925,15.33
2011-10-18 21:00,31.109,22.905,38.907,15.33
2011-10-18 22:00,31.076,22.907,38.754,15.20
2011-10-18 23:00,31.106,22.947,38.717,15.12
2011-10-19 00:00,31.152,22.993,38.723,15.07
2011-10-19 01:00,31.189,23.030,38.729,15.03
2011-10-19 02:00,31.199,23.047,38.705,14.99
2011-10-19 03:00,31.187,23.027,38.736,15.04
2011-10-19 04:00,31.184,23.035,38.688,14.99
2011-10-19 05:00,31.186,23.041,38.673,14.97
2011-10-19 06:00,31.178,23.035,38.664,14.97
2011-10-19 07:00,31.174,23.029,38.668,14.98
2011-10-19 08:00,31.138,22.993,38.663,15.02
2011-10-19 09:00,31.143,23.001,38.651,15.00
2011-10-19 10:00,31.159,23.018,38.651,14.98
2011-10-19 11:00,31.201,23.065,38.636,14.91
2011-10-19 12:00,31.203,23.068,38.629,14.90
2011-10-19 13:00,31.159,23.022,38.634,14.96
2011-10-19 14:00,31.141,23.004,38.631,14.98
2011-10-19 15:00,31.120,22.984,38.626,15.00
2011-10-19 16:00,31.118,22.980,38.632,15.01
2011-10-19 17:00,31.103,22.966,38.624,15.02
2011-10-19 18:00,31.096,22.959,38.626,15.03
2011-10-19 19:00,31.102,22.963,38.632,15.03
2011-10-19 20:00,31.109,22.975,38.613,15.00
2011-10-19 21:00,31.089,22.962,38.582,14.99
2011-10-19 22:00,31.086,22.966,38.552,14.96
2011-10-19 23:00,31.111,22.994,38.545,14.92
2011-10-20 00:00,31.116,23.004,38.524,14.89
2011-10-20 02:00,31.132,23.021,38.524,14.87
2011-10-20 03:00,31.125,23.013,38.525,14.88
2011-10-20 04:00,31.121,23.012,38.511,14.87
2011-10-20 05:00,31.117,23.011,38.498,14.86
2011-10-20 06:00,31.105,23.002,38.485,14.86
2011-10-20 07:00,31.090,22.990,38.468,14.86
2011-10-20 08:00,31.087,22.988,38.465,14.86
2011-10-20 09:00,31.078,22.979,38.464,14.87
2011-10-20 10:00,31.094,22.993,38.473,14.86
2011-10-20 11:00,31.092,22.989,38.479,14.87
2011-10-20 12:00,31.094,22.991,38.481,14.87
2011-10-20 13:00,31.084,22.979,38.488,14.89
2011-10-20 14:00,,,,
2011-10-20 15:00,31.048,22.935,38.519,14.97
2011-10-20 16:00,31.044,22.916,38.576,15.04
2011-10-20 17:00,31.048,22.900,38.660,15.13
2011-10-20 18:00,31.047,22.897,38.668,15.14
2011-10-20 19:00,31.060,22.923,38.621,15.07
2011-10-20 20:00,31.060,22.923,38.621,15.07
2011-10-20 21:00,31.066,22.942,38.565,15.00
2011-10-20 22:00,31.066,22.946,38.548,14.98
2011-10-20 23:00,31.071,22.952,38.544,14.97
2011-10-21 00:00,31.074,22.959,38.530,14.95
2011-10-21 01:00,31.081,22.970,38.511,14.92
2011-10-21 02:00,31.093,22.986,38.498,14.89
2011-10-21 03:00,,,,
2011-10-21 04:00,31.113,23.016,38.458,14.82
2011-10-21 05:00,31.124,23.031,38.444,14.79
2011-10-21 06:00,31.119,23.027,38.438,14.79
2011-10-21 07:00,31.128,23.043,38.413,14.75
2011-10-21 08:00,,,,
2011-10-21 09:00,31.126,23.043,38.402,14.74
2011-10-21 10:00,31.130,23.053,38.380,14.71
2011-10-21 11:00,31.130,23.057,38.362,14.69
2011-10-21 13:00,31.137,23.074,38.316,14.63
2011-10-21 14:00,31.150,23.085,38.331,14.63
2011-10-21 15:00,31.155,23.088,38.336,14.63
2011-10-21 16:00,31.143,23.079,38.323,14.63
2011-10-21 17:00,31.136,23.076,38.307,14.62
2011-10-21 18:00,31.136,23.076,38.307,14.62
2011-10-21 19:00,31.135,23.073,38.314,14.63
2011-10-21 20:00,31.141,23.084,38.294,14.60
2011-10-21 21:00,31.144,23.087,38.298,14.60
2011-10-21 22:00,31.136,23.084,38.271,14.58
2011-10-21 23:00,31.138,23.090,38.256,14.56
2011-10-22 00:00,31.136,23.090,38.244,14.55
2011-10-22 01:00,31.133,23.090,38.232,14.54
2011-10-22 02:00,31.144,23.107,38.209,14.50
2011-10-22 03:00,31.138,23.107,38.185,14.48
2011-10-22 04:00,31.133,23.105,38.170,14.47
2011-10-22 05:00,31.138,23.105,38.194,14.49
2011-10-22 06:00,31.133,23.103,38.179,14.48
2011-10-22 07:00,31.134,23.105,38.171,14.47
2011-10-22 08:00,31.131,23.105,38.159,14.46
2011-10-22 09:00,31.132,23.109,38.152,14.45
2011-10-22 10:00,31.129,23.108,38.139,14.44
2011-10-22 11:00,31.134,23.106,38.172,14.47
2011-10-22 12:00,31.150,23.074,38.375,14.68
2011-10-22 13:00,31.146,23.069,38.380,14.69
2011-10-22 14:00,31.148,23.067,38.400,14.71
2011-10-22 15:00,31.151,23.075,38.376,14.68
2011-10-22 16:00,31.163,23.118,38.248,14.52
2011-10-22 17:00,31.163,23.113,38.265,14.54
2011-10-22 18:00,31.148,23.066,38.399,14.71
2011-10-22 19:00,31.147,23.068,38.390,14.70
2011-10-22 20:00,31.150,23.070,38.393,14.70
2011-10-22 21:00,31.149,23.065,38.409,14.72
2011-10-22 22:00,31.139,23.051,38.425,14.75
2011-10-22 23:00,31.138,23.052,38.415,14.74
2011-10-23 00:00,31.120,23.036,38.404,14.75
2011-10-23 01:00,31.131,23.055,38.372,14.70
2011-10-23 02:00,31.125,23.065,38.303,14.63
2011-10-23 03:00,31.149,23.092,38.294,14.59
2011-10-23 04:00,31.159,23.112,38.252,14.53
2011-10-23 05:00,31.166,23.134,38.189,14.45
2011-10-23 06:00,31.184,23.159,38.165,14.40
2011-10-23 07:00,,,,
2011-10-23 08:00,31.180,23.164,38.125,14.36
2011-10-23 09:00,31.149,23.123,38.161,14.44
2011-10-23 10:00,31.147,23.118,38.177,14.46
2011-10-23 11:00,31.141,23.103,38.215,14.51
2011-10-23 12:00,31.129,23.093,38.201,14.51
2011-10-23 13:00,31.121,23.083,38.210,14.53
2011-10-23 15:00,31.117,23.057,38.303,14.64
2011-10-23 16:00,31.144,23.065,38.386,14.70
2011-10-23 17:00,31.147,23.038,38.514,14.84
2011-10-23 18:00,31.137,22.961,38.796,15.17
2011-10-23 19:00,31.133,22.934,38.889,15.28
2011-10-23 20:00,31.150,22.955,38.872,15.24
2011-10-23 21:00,31.146,22.972,38.788,15.15
2011-10-23 22:00,31.108,22.936,38.772,15.18
2011-10-23 23:00,31.085,22.976,38.507,14.91
2011-10-24 00:00,31.072,22.968,38.484,14.90
2011-10-24 01:00,31.074,22.980,38.441,14.85
2011-10-24 02:00,31.097,23.014,38.396,14.77
2011-10-24 03:00,31.103,23.044,38.296,14.65
2011-10-24 04:00,31.125,23.065,38.303,14.63
2011-10-24 05:00,31.116,23.065,38.267,14.60
2011-10-24 06:00,31.108,23.075,38.187,14.52
2011-10-24 07:00,31.112,23.090,38.138,14.46
2011-10-24 08:00,31.129,23.100,38.175,14.48
2011-10-24 09:00,31.118,23.091,38.163,14.48
2011-10-24 10:00,31.108,23.075,38.187,14.52
2011-10-24 11:00,31.125,23.084,38.223,14.54
2011-10-24 12:00,31.128,23.085,38.236,14.55
2011-10-24 13:00,31.116,23.063,38.276,14.61
2011-10-24 14:00,31.112,23.055,38.289,14.63
2011-10-24 15:00,31.103,23.036,38.332,14.69
2011-10-24 16:00,31.087,23.009,38.376,14.76
2011-10-24 17:00,31.073,22.979,38.440,14.85
2011-10-24 18:00,31.084,23.003,38.391,14.78
2011-10-24 19:00,31.126,23.083,38.233,14.55
2011-10-24 20:00,31.185,23.174,38.104,14.33
2011-10-24 21:00,31.180,23.174,38.080,14.31
2011-10-24 22:00,31.161,23.151,38.095,14.35
2011-10-24 23:00,31.134,23.112,38.145,14.44
2011-10-25 00:00,31.126,23.098,38.172,14.48
2011-10-25 01:00,31.128,23.103,38.156,14.46
2011-10-25 02:00,31.156,23.152,38.072,14.33
2011-10-25 03:00,31.168,23.169,38.050,14.29
2011-10-25 04:00,31.196,23.205,38.018,14.22
2011-10-25 05:00,31.190,23.235,37.862,14.05
2011-10-25 06:00,31.218,23.263,37.866,14.02
2011-10-25 07:00,31.226,23.277,37.839,13.98
2011-10-25 08:00,31.260,23.295,37.911,14.02
2011-10-25 09:00,31.267,23.305,37.901,14.00
2011-10-25 10:00,31.264,23.304,37.889,13.99
2011-10-25 11:00,31.243,23.300,37.813,13.93
2011-10-25 12:00,31.260,23.307,37.858,13.96
2011-10-25 13:00,31.257,23.303,37.864,13.97
2011-10-25 14:00,31.253,23.296,37.877,13.99
2011-10-25 15:00,31.256,23.296,37.889,14.00
2011-10-25 16:00,31.263,23.302,37.897,14.00
2011-10-25 17:00,31.266,23.310,37.874,13.97
2011-10-25 18:00,31.271,23.306,37.915,14.01
2011-10-25 19:00,31.267,23.290,37.963,14.07
2011-10-25 20:00,31.258,23.286,37.945,14.06
2011-10-25 21:00,,,,
2011-10-25 22:00,31.260,23.298,37.903,14.01
2011-10-25 23:00,31.272,23.309,37.907,14.00
2011-10-26 00:00,31.275,23.317,37.883,13.97
2011-10-26 01:00,31.281,23.330,37.855,13.93
2011-10-26 02:00,31.275,23.329,37.830,13.91
2011-10-26 03:00,31.281,23.336,37.828,13.90
2011-10-26 04:00,31.283,23.342,37.813,13.88
2011-10-26 05:00,31.276,23.336,37.805,13.88
2011-10-26 06:00,31.296,23.359,37.791,13.84
2011-10-26 07:00,31.283,23.349,37.777,13.84
2011-10-26 09:00,31.253,23.332,37.718,13.81
2011-10-26 10:00,31.251,23.337,37.689,13.78
2011-10-26 11:00,31.261,23.344,37.700,13.78
2011-10-26 12:00,31.282,23.359,37.732,13.79
2011-10-26 13:00,31.299,23.382,37.706,13.74
2011-10-26 14:00,31.293,23.380,37.691,13.73
2011-10-26 15:00,31.292,23.379,37.690,13.73
2011-10-26 16:00,31.283,23.372,37.680,13.73
2011-10-26 17:00,31.264,23.359,37.651,13.72
2011-10-26 18:00,31.253,23.358,37.603,13.68
2011-10-26 19:00,31.228,23.347,37.541,13.64
2011-10-26 20:00,31.218,23.349,37.486,13.59
2011-10-26 21:00,31.195,23.356,37.356,13.47
2011-10-26 22:00,31.196,23.368,37.304,13.41
2011-10-26 23:00,31.191,23.362,37.307,13.42
2011-10-27 00:00,31.186,23.345,37.364,13.49
2011-10-27 01:00,31.224,23.370,37.422,13.51
2011-10-27 02:00,31.246,23.377,37.490,13.56
2011-10-27 03:00,31.263,23.400,37.464,13.51
2011-10-27 04:00,31.259,23.399,37.451,13.50
2011-10-27 05:00,31.252,23.404,37.400,13.45
2011-10-27 06:00,31.257,23.406,37.414,13.46
2011-10-27 07:00,31.258,23.426,37.327,13.36
2011-10-27 08:00,31.247,23.374,37.509,13.58
2011-10-27 09:00,31.245,23.342,37.639,13.73
2011-10-27 10:00,31.245,23.342,37.639,13.73
2011-10-27 11:00,31.246,23.351,37.605,13.69
2011-10-27 12:00,31.240,23.353,37.572,13.66
2011-10-27 13:00,31.252,23.394,37.444,13.50
2011-10-27 14:00,31.247,23.400,37.394,13.45
2011-10-27 15:00,31.249,23.387,37.458,13.52
2011-10-27 16:00,31.237,23.342,37.604,13.70
2011-10-27 17:00,31.216,23.286,37.758,13.90
2011-10-27 18:00,31.201,23.266,37.777,13.94
2011-10-27 19:00,31.190,23.251,37.791,13.97
2011-10-27 20:00,31.188,23.258,37.753,13.93
2011-10-27 21:00,31.193,23.270,37.724,13.89
2011-10-27 22:00,31.197,23.283,37.684,13.84
2011-10-27 23:00,31.196,23.291,37.648,13.80
2011-10-28 00:00,31.204,23.298,37.647,13.79
2011-10-28 01:00,31.195,23.301,37.593,13.74
2011-10-28 02:00,31.189,23.309,37.534,13.68
2011-10-28 03:00,31.189,23.317,37.499,13.64
2011-10-28 04:00,31.194,23.331,37.460,13.59
2011-10-28 05:00,31.199,23.341,37.439,13.56
2011-10-28 06:00,,,,
2011-10-28 07:00,31.222,23.362,37.446,13.54
2011-10-28 08:00,31.227,23.370,37.434,13.52
2011-10-28 09:00,31.235,23.392,37.372,13.44
2011-10-28 10:00,31.228,23.387,37.365,13.44
2011-10-28 11:00,31.223,23.387,37.342,13.42
2011-10-28 12:00,31.228,23.393,37.339,13.41
2011-10-28 13:00,31.227,23.392,37.337,13.41
2011-10-28 14:00,31.223,23.391,37.324,13.40
2011-10-28 15:00,31.229,23.396,37.331,13.40
2011-10-28 16:00,31.234,23.398,37.345,13.41
2011-10-28 17:00,31.239,23.401,37.350,13.41
2011-10-28 18:00,31.251,23.409,37.372,13.42
2011-10-28 19:00,31.251,23.412,37.354,13.40
2011-10-28 20:00,31.262,23.429,37.331,13.36
2011-10-28 21:00,,,,
2011-10-28 22:00,31.289,23.476,37.246,13.23
2011-10-28 23:00,31.264,23.456,37.219,13.23
2011-10-29 00:00,31.259,23.452,37.213,13.23
2011-10-29 01:00,,,,
2011-10-29 02:00,31.270,23.463,37.216,13.22
2011-10-29 03:00,31.237,23.457,37.093,13.12
2011-10-29 04:00,,,,
2011-10-29 05:00,,,,
2011-10-29 06:00,31.286,23.497,37.137,13.11
2011-10-29 07:00,31.268,23.492,37.073,13.06
2011-10-29 08:00,31.245,23.483,37.014,13.02
2011-10-29 09:00,,,,
2011-10-29 10:00,31.220,23.482,36.899,12.92
2011-10-29 11:00,31.199,23.468,36.868,12.91
2011-10-29 12:00,31.199,23.470,36.860,12.90
2011-10-29 13:00,31.221,23.487,36.883,12.90
2011-10-29 14:00,31.236,23.489,36.943,12.95
2011-10-29 15:00,31.233,23.498,36.887,12.89
2011-10-29 16:00,31.230,23.490,36.910,12.92
2011-10-29 17:00,31.227,23.491,36.889,12.90
2011-10-29 18:00,31.219,23.489,36.863,12.88
2011-10-29 19:00,31.252,23.505,36.942,12.93
2011-10-29 20:00,31.277,23.528,36.951,12.91
2011-10-29 21:00,31.300,23.552,36.949,12.88
2011-10-29 22:00,31.332,23.584,36.948,12.84
2011-10-29 23:00,31.322,23.577,36.938,12.84
2011-10-30 00:00,31.320,23.573,36.944,12.85
2011-10-30 01:00,,,,
2011-10-30 02:00,,,,
2011-10-30 03:00,31.329,23.607,36.831,12.71
2011-10-30 04:00,31.314,23.584,36.868,12.77
2011-10-30 05:00,31.297,23.563,36.885,12.81
2011-10-30 06:00,31.313,23.581,36.875,12.78
2011-10-30 07:00,31.303,23.577,36.847,12.76
2011-10-30 08:00,31.320,23.606,36.795,12.68
2011-10-30 09:00,31.322,23.613,36.771,12.65
2011-10-30 10:00,31.312,23.632,36.637,12.51
2011-10-30 11:00,31.306,23.633,36.605,12.48
2011-10-30 12:00,31.290,23.632,36.536,12.42
2011-10-30 13:00,31.177,23.572,36.286,12.27
2011-10-30 14:00,31.094,23.539,36.051,12.10
2011-10-30 15:00,30.942,23.534,35.358,11.48
2011-10-30 16:00,31.096,23.636,35.603,11.58
2011-10-30 17:00,31.057,23.591,35.632,11.66
2011-10-30 18:00,31.056,23.592,35.622,11.65
2011-10-30 19:00,31.060,23.595,35.626,11.65
2011-10-30 20:00,31.071,23.602,35.646,11.66
2011-10-30 21:00,31.081,23.606,35.674,11.68
2011-10-30 22:00,31.093,23.620,35.660,11.65
2011-10-30 23:00,31.108,23.638,35.650,11.62
2011-10-31 00:00,31.114,23.646,35.639,11.60
2011-10-31 01:00,31.123,23.653,35.648,11.60
2011-10-31 02:00,31.121,23.650,35.655,11.61
2011-10-31 03:00,31.110,23.643,35.635,11.60
2011-10-31 04:00,31.114,23.648,35.630,11.59
2011-10-31 05:00,31.114,23.649,35.621,11.58
2011-10-31 06:00,31.064,23.602,35.613,11.63
2011-10-31 07:00,,,,
2011-10-31 08:00,,,,
2011-10-31 09:00,31.048,23.605,35.519,11.54
2011-10-31 10:00,,,,
2011-10-31 11:00,31.012,23.592,35.413,11.46
2011-10-31 12:00,30.976,23.568,35.359,11.44
2011-10-31 13:00,31.002,23.575,35.446,11.51
2011-10-31 14:00,31.379,23.682,36.717,12.52
2011-10-31 15:00,31.382,23.683,36.729,12.53